Simultaneous Nadir Overpasses (SNOs) Predictions

Prediction of SNOs between GOES-16 and METOP-C Satellite Orbit:

Table of predicted SNOs for the next 14.0 days since TLE Epoch: 9/11/2020
Index Date Time (GOES-16) GOES-16 Lat,Lon METOP-C Lat,Lon Distance(km) Time Diff (sec)
1 09/13/2020 14:29:09 0.01, -75.19 -0.11, -74.80 45.02 80
2 09/15/2020 02:50:48 -0.02, -75.17 -0.98, -79.39 480.41 80
3 09/16/2020 02:27:29 -0.01, -75.18 0.16, -74.40 89.32 80
4 09/17/2020 14:48:59 0.02, -75.21 0.83, -78.96 426.43 80
5 09/18/2020 14:25:39 0.01, -75.22 -0.25, -73.95 143.64 80
6 09/20/2020 02:47:19 -0.02, -75.21 -0.77, -78.55 380.65 80
7 09/21/2020 02:23:59 -0.01, -75.22 0.37, -73.56 189.72 80
8 09/22/2020 14:45:30 0.02, -75.26 0.63, -78.12 325.20 80
9 09/23/2020 14:22:09 0.02, -75.27 -0.45, -73.12 245.37 80
10 09/25/2020 02:43:49 -0.03, -75.27 -0.56, -77.72 278.07 80
